Погода в Рындином

Россия / Чувашская Республика     55°51′15″N   47°26′26″E
темп.,
°C
ветер,
м/с
пор.,
м/с
влажн.,
%
обл.,
%
осадки,
мм/ч
давл.,
гПа
погр.,
м
20 июня, вс
вс2000:00+17з410910 0.0 1021162
03:00+16зсз36921 0.0 1022100
06:00+20зсз36835 0.0 1022184
09:00+24зсз45685 0.0 1022537
12:00+27зсз44595 0.0 10221102
15:00+28зсз44570 0.0 10211349
18:00+26з46740 0.0 1020317
21:00+21з35905 0.0 102165
21 июня, пн
пн2100:00+19зюз22925 0.0 102133
03:00+18зюз22930 0.0 102232
06:00+21зюз35840 0.0 1022168
09:00+25зюз34682 0.0 1022519
12:00+28з44580 0.0 10211159
15:00+28з44570 0.0 10211509
18:00+27з35720 0.0 1020268
21:00+22з34870 0.0 102144
22 июня, вт
вт2200:00+20з33910 0.0 102145
03:00+19з22920 0.0 102223
06:00+22з24835 0.0 1022156
09:00+27з33675 0.0 1022561
12:00+29з34565 0.1 10221355
15:00+30зсз345195 0.1 10221705
18:00+27з367487 0.0 1021226
21:00+22з33865 0.0 102129
23 июня, ср
ср2300:00+21з338895 0.0 102140
03:00+20зсз229027 0.0 102215
06:00+23зсз348111 0.0 1022156
09:00+27зсз33659 0.0 1022520
12:00+29зсз34549 0.0 10221567
15:00+30з334820 0.0 10212009
18:00+28з36671 0.0 1020197
21:00+23з22810 0.1 102124
24 июня, чт
чт2400:00+22зюз22840 0.0 102022
03:00+20з358910 0.6 102074
06:00+23зсз24830 0.0 1020164
09:00+27з34670 0.1 1020546
12:00+30сз45550 0.0 10191334
15:00+31зсз55535 0.0 10191493
18:00+28зсз510700 0.1 1017363
21:00+24зсз338280 0.1 101743